Weather History for Oscoda, MI

Change the Weather History Date:

Friday, July 20, 2012

  Actual Average Record
Temperature  
Mean Temperature 65 °F -  
Max Temperature 76 °F 77 °F 89 °F (1998)
Min Temperature 54 °F 57 °F 42 °F (1997)
Growing Degree Days 15 (Base 50)    
Moisture  
Dew Point 54 °F    
Average Humidity 65    
Maximum Humidity 93    
Minimum Humidity 36    
Precipitation  
Precipitation 0.00 in - - ()
Sea Level Pressure  
Sea Level Pressure 30.09 in    
Wind  
Wind Speed 9 mph (NNE)    
Max Wind Speed 17 mph    
Max Gust Speed 23 mph    
Visibility 10 miles    
Events      
Averages and records for this station are not official NWS values.
T = Trace of Precipitation, MM = Missing Value Source: NWS Daily Summary

Daily Weather History Graph

Daily Weather History Graph

Search for Another Location

Airport:

Trip Planner

Search our weather history database for the weather conditions in past years. The results will help you decide how hot, cold, wet, or windy it might be!

Date:

Astronomy

Jul. 20, 2012 Rise Set
Actual Time 6:08 AM EDT 9:11 PM EDT
Civil Twilight 5:33 AM EDT 9:45 PM EDT
Nautical Twilight 4:48 AM EDT 10:30 PM EDT
Astronomical Twilight 3:55 AM EDT 11:23 PM EDT
Moon 7:50 AM EDT (7/20) 9:42 PM EDT (7/20)
Length of Visible Light 16h 12m
Length of Day
15h 02m
New Moon, 2% of the Moon is Illuminated
Jul 20
New Moon
Jul 26
First Quarter
Aug 1
Full
Aug 9
Last Quarter
Aug 17
New

Hourly Weather History & Observations

Time (EDT) Temp. Dew Point Humidity Pressure Visibility Wind Dir Wind Speed Gust Speed Precip Events Conditions
12:13 AM 61.7 °F 59.2 °F 91% 30.05 in 10.0 mi NNW 6.9 mph - N/A   Clear
12:34 AM 61.0 °F 59.0 °F 93% 30.05 in 10.0 mi NNW 5.8 mph - N/A   Clear
12:54 AM 60.8 °F 58.6 °F 93% 30.06 in 10.0 mi NNW 5.8 mph - N/A   Clear
1:13 AM 60.8 °F 58.5 °F 92% 30.06 in 10.0 mi NNW 5.8 mph - N/A   Clear
1:34 AM 61.5 °F 58.3 °F 89% 30.06 in 10.0 mi NE 6.9 mph - N/A   Clear
1:54 AM 67.5 °F 56.5 °F 68% 30.06 in 10.0 mi ENE 10.4 mph - N/A   Clear
2:13 AM 67.6 °F 56.5 °F 67% 30.07 in 10.0 mi ENE 10.4 mph 17.3 mph N/A   Clear
2:34 AM 67.3 °F 56.5 °F 68% 30.07 in 10.0 mi ENE 11.5 mph - N/A   Clear
2:54 AM 67.3 °F 56.7 °F 69% 30.07 in 10.0 mi NE 10.4 mph - N/A   Clear
3:13 AM 63.9 °F 56.3 °F 76% 30.07 in 10.0 mi NNE 5.8 mph - N/A   Clear
3:34 AM 58.6 °F 55.8 °F 90% 30.06 in 10.0 mi NNW 5.8 mph - N/A   Clear
3:53 AM 57.4 °F 55.0 °F 92% 30.06 in 10.0 mi NW 6.9 mph - N/A   Clear
4:13 AM 56.8 °F 54.5 °F 92% 30.06 in 10.0 mi NW 8.1 mph - N/A   Clear
4:34 AM 57.0 °F 54.5 °F 91% 30.06 in 10.0 mi NNW 8.1 mph - N/A   Clear
4:53 AM 56.3 °F 54.0 °F 92% 30.07 in 10.0 mi NNW 6.9 mph - N/A   Clear
5:13 AM 55.9 °F 54.0 °F 93% 30.06 in 10.0 mi NNW 5.8 mph - N/A   Clear
5:34 AM 57.2 °F 54.1 °F 89% 30.07 in 10.0 mi NNW 6.9 mph - N/A   Clear
5:53 AM 55.9 °F 53.6 °F 92% 30.07 in 10.0 mi NNW 5.8 mph - N/A   Clear
6:13 AM 54.5 °F 52.3 °F 92% 30.08 in 10.0 mi NW 4.6 mph - N/A   Clear
6:34 AM 55.6 °F 53.6 °F 93% 30.07 in 10.0 mi NNW 6.9 mph - N/A   Clear
6:53 AM 57.2 °F 54.7 °F 91% 30.08 in 10.0 mi NNW 6.9 mph - N/A   Clear
7:14 AM 59.0 °F 55.8 °F 89% 30.09 in 10.0 mi NNW 5.8 mph - N/A   Clear
7:34 AM 61.2 °F 57.0 °F 86% 30.08 in 10.0 mi NNW 4.6 mph - N/A   Clear
7:53 AM 62.6 °F 57.4 °F 83% 30.10 in 10.0 mi NNW 6.9 mph - N/A   Clear
8:13 AM 64.8 °F 58.1 °F 79% 30.10 in 10.0 mi NNW 5.8 mph - N/A   Clear
8:34 AM 68.2 °F 58.8 °F 72% 30.10 in 10.0 mi North 4.6 mph - N/A   Clear
8:53 AM 72.0 °F 58.6 °F 63% 30.11 in 10.0 mi NNE 11.5 mph - N/A   Clear
9:14 AM 72.5 °F 57.9 °F 60% 30.11 in 10.0 mi NE 11.5 mph - N/A   Clear
9:34 AM 72.9 °F 57.6 °F 59% 30.11 in 10.0 mi NE 12.7 mph 16.1 mph N/A   Clear
9:53 AM 73.2 °F 56.7 °F 56% 30.12 in 10.0 mi NE 13.8 mph 19.6 mph N/A   Clear
10:14 AM 73.4 °F 56.8 °F 56% 30.13 in 10.0 mi NE 15.0 mph 20.7 mph N/A   Clear
10:34 AM 74.1 °F 58.1 °F 57% 30.12 in 10.0 mi NE 15.0 mph - N/A   Clear
10:53 AM 74.3 °F 55.9 °F 53% 30.13 in 10.0 mi NNE 17.3 mph 23.0 mph N/A   Clear
11:14 AM 74.7 °F 56.3 °F 53% 30.12 in 10.0 mi NNE 15.0 mph - N/A   Clear
11:34 AM 75.0 °F 56.1 °F 52% 30.13 in 10.0 mi NNE 12.7 mph 20.7 mph N/A   Clear
11:53 AM 75.6 °F 55.8 °F 50% 30.13 in 10.0 mi NE 15.0 mph 20.7 mph N/A   Clear
12:14 PM 76.1 °F 53.8 °F 46% 30.13 in 10.0 mi NE 16.1 mph 20.7 mph N/A   Scattered Clouds
12:34 PM 76.5 °F 52.2 °F 43% 30.13 in 10.0 mi NE 17.3 mph 21.9 mph N/A   Scattered Clouds
12:53 PM 76.3 °F 51.1 °F 41% 30.12 in 10.0 mi NNE 17.3 mph 23.0 mph N/A   Clear
1:14 PM 76.8 °F 51.3 °F 41% 30.12 in 10.0 mi NE 13.8 mph 19.6 mph N/A   Clear
1:33 PM 76.3 °F 51.4 °F 42% 30.12 in 10.0 mi NE 17.3 mph 20.7 mph N/A   Scattered Clouds
1:53 PM 76.5 °F 47.3 °F 36% 30.12 in 10.0 mi NE 12.7 mph 20.7 mph N/A   Clear
2:14 PM 76.3 °F 51.4 °F 42% 30.12 in 10.0 mi NE 12.7 mph 20.7 mph N/A   Clear
2:34 PM 75.9 °F 50.0 °F 40% 30.11 in 10.0 mi NE 15.0 mph 21.9 mph N/A   Clear
2:53 PM 75.9 °F 53.6 °F 46% 30.11 in 10.0 mi NE 13.8 mph 21.9 mph N/A   Clear
3:14 PM 75.0 °F 54.5 °F 49% 30.12 in 10.0 mi ENE 11.5 mph - N/A   Scattered Clouds
3:33 PM 75.6 °F 52.5 °F 45% 30.11 in 10.0 mi NNE 12.7 mph 18.4 mph N/A   Scattered Clouds
3:53 PM 75.6 °F 53.4 °F 46% 30.11 in 10.0 mi NE 12.7 mph 18.4 mph N/A   Clear
4:14 PM 74.8 °F 52.9 °F 46% 30.11 in 10.0 mi ENE 10.4 mph - N/A   Clear
4:33 PM 75.4 °F 54.7 °F 48% 30.11 in 10.0 mi ENE 11.5 mph 16.1 mph N/A   Clear
4:53 PM 74.5 °F 54.1 °F 49% 30.10 in 10.0 mi NE 13.8 mph - N/A   Clear
5:14 PM 74.3 °F 53.2 °F 48% 30.10 in 10.0 mi ENE 13.8 mph - N/A   Clear
5:33 PM 74.5 °F 51.4 °F 44% 30.10 in 10.0 mi NE 10.4 mph 17.3 mph N/A   Clear
5:53 PM 73.6 °F 51.8 °F 46% 30.09 in 10.0 mi ENE 13.8 mph - N/A   Clear
6:14 PM 73.6 °F 51.8 °F 46% 30.10 in 10.0 mi ENE 11.5 mph - N/A   Clear
6:33 PM 73.2 °F 50.9 °F 45% 30.09 in 10.0 mi ENE 10.4 mph - N/A   Clear
6:53 PM 72.5 °F 50.4 °F 46% 30.08 in 10.0 mi NE 11.5 mph - N/A   Clear
7:14 PM 72.5 °F 50.0 °F 45% 30.09 in 10.0 mi ENE 10.4 mph - N/A   Clear
7:33 PM 72.0 °F 50.9 °F 47% 30.08 in 10.0 mi NE 8.1 mph - N/A   Clear
7:54 PM 71.2 °F 51.1 °F 49% 30.08 in 10.0 mi NE 8.1 mph - N/A   Clear
8:14 PM 70.3 °F 49.3 °F 47% 30.08 in 10.0 mi NE 8.1 mph - N/A   Clear
8:33 PM 69.3 °F 51.4 °F 53% 30.07 in 10.0 mi ENE 8.1 mph - N/A   Clear
8:54 PM 67.5 °F 52.0 °F 58% 30.07 in 10.0 mi ENE 4.6 mph - N/A   Clear
9:14 PM 66.9 °F 52.5 °F 60% 30.07 in 10.0 mi NE 4.6 mph - N/A   Clear
9:33 PM 66.6 °F 53.1 °F 62% 30.07 in 10.0 mi NE 5.8 mph - N/A   Clear
9:54 PM 65.7 °F 53.4 °F 65% 30.07 in 10.0 mi Calm Calm - N/A   Clear
10:14 PM 64.6 °F 53.1 °F 66% 30.07 in 10.0 mi NE 3.5 mph - N/A   Clear
10:33 PM 61.3 °F 52.7 °F 73% 30.07 in 10.0 mi Calm Calm - N/A   Clear
10:54 PM 64.4 °F 54.1 °F 69% 30.08 in 10.0 mi Calm Calm - N/A   Clear
11:14 PM 54.1 °F 49.5 °F 84% 30.08 in 10.0 mi WSW 6.9 mph - N/A   Clear
11:33 PM 54.5 °F 49.5 °F 83% 30.08 in 10.0 mi SW 5.8 mph - N/A   Clear
11:54 PM 54.1 °F 49.8 °F 85% 30.09 in 10.0 mi WSW 4.6 mph - N/A   Clear